Temp
-6 -6 -6 -6 -6 -6 -6 -5 -6 -5 -5 -5 -5 -5 -5 -5 -5 -5 -5 -5 -5 -5 -5 -5 -5 -5 -5 -5 -5 -5 -5 -5 -5 -5 -5 -5 -5 -6 -6 -6 -6 -6 -6 -7 -7 -7 -7 -8 -8
-6 -6 -6 -6 -6 -6 -6 -6 -5 -6 -6 -5 -5 -5 -5 -4 -5 -5 -5 -5 -5 -5 -5 -5 -5 -5 -5 -5 -6 -6 -6 -6 -5 -5 -6 -6 -6 -6 -6 -6 -6 -6 -7 -7 -7 -7 -7 -8 -8
-6 -6 -6 -6 -7 -7 -6 -6 -6 -6 -6 -6 -5 -5 -5 -5 -5 -5 -5 -5 -5 -5 -5 -5 -5 -6 -5 -5 -6 -6 -6 -6 -6 -6 -6 -6 -6 -6 -6 -6 -7 -7 -7 -7 -7 -7 -7 -7 -8
-6 -6 -6 -7 -7 -7 -7 -6 -6 -6 -6 -6 -6 -5 -5 -5 -5 -5 -5 -5 -5 -5 -5 -5 -5 -6 -6 -6 -6 -6 -6 -6 -6 -6 -7 -7 -7 -7 -7 -7 -7 -7 -7 -7 -7 -7 -7 -7 -7
-7 -6 -7 -7 -7 -7 -7 -7 -6 -6 -6 -6 -6 -5 -6 -5 -5 -5 -5 -5 -5 -5 -5 -5 -6 -6 -6 -6 -6 -6 -7 -7 -7 -7 -7 -7 -7 -7 -7 -7 -7 -8 -7 -7 -7 -7 -8 -8 -8
-7 -7 -7 -7 -7 -7 -7 -7 -6 -6 -6 -6 -6 -6 -6 -6 -6 -6 -6 -6 -5 -5 -5 -5 -6 -6 -6 -6 -6 -6 -7 -7 -7 -7 -7 -7 -8 -8 -8 -8 -8 -8 -8 -8 -8 -8 -8 -8 -8
-7 -8 -8 -8 -7 -7 -7 -7 -7 -6 -6 -6 -6 -6 -6 -6 -6 -7 -7 -7 -6 -6 -6 -6 -6 -6 -6 -6 -6 -7 -7 -7 -7 -7 -8 -8 -8 -8 -8 -8 -8 -8 -8 -9 -8 -8 -8 -8 -8
-8 -8 -8 -8 -7 -7 -7 -7 -7 -7 -6 -7 -7 -7 -7 -7 -7 -7 -6 -7 -7 -7 -7 -7 -7 -7 -7 -7 -7 -7 -7 -7 -7 -8 -8 -8 -8 -8 -8 -9 -9 -9 -9 -9 -9 -9 -9 -9 -9
-8 -8 -8 -8 -7 -7 -7 -7 -7 -7 -7 -7 -7 -7 -7 -7 -7 -7 -7 -7 -7 -7 -7 -7 -7 -7 -7 -7 -7 -8 -7 -7 -7 -7 -7 -8 -8 -8 -8 -8 -9 -9 -9 -9 -9 -9 -9 -9 -9
-8 -8 -8 -8 -8 -8 -7 -7 -7 -7 -7 -7 -7 -7 -7 -7 -7 -7 -7 -7 -7 -8 -8 -8 -8 -8 -8 -8 -8 -8 -8 -8 -8 -8 -8 -8 -8 -8 -8 -8 -8 -9 -9 -9 -9 -9 -9 -9 -9
-8 -7 -8 -8 -8 -8 -7 -7 -7 -7 -8 -8 -8 -7 -7 -7 -7 -7 -8 -8 -8 -8 -8 -8 -8 -8 -8 -8 -8 -8 -8 -8 -8 -8 -9 -9 -8 -8 -8 -8 -9 -9 -9 -9 -9 -9 -9 -10 -9
-7 -7 -8 -7 -7 -7 -7 -7 -7 -7 -7 -7 -7 -7 -8 -8 -7 -7 -8 -8 -8 -8 -8 -8 -8 -8 -8 -8 -8 -8 -8 -8 -8 -8 -8 -8 -9 -9 -9 -9 -9 -9 -9 -9 -9 -9 -9 -10 -10
-8 -7 -7 -7 -7 -6 -7 -7 -7 -7 -7 -7 -7 -7 -7 -8 -8 -7 -7 -7 -8 -8 -8 -8 -8 -8 -8 -8 -8 -8 -8 -8 -8 -8 -8 -8 -9 -9 -9 -9 -9 -9 -9 -9 -9 -9 -10 -10 -10
-8 -7 -7 -7 -7 -6 -7 -7 -7 -7 -7 -7 -7 -7 -7 -7 -7 -7 -7 -8 -8 -8 -8 -8 -8 -8 -8 -8 -8 -8 -8 -8 -9 -8 -8 -8 -8 -8 -9 -9 -9 -9 -10 -10 -10 -10 -10 -10 -10
-8 -7 -7 -7 -7 -7 -6 -7 -7 -7 -7 -7 -7 -7 -7 -7 -7 -8 -8 -8 -8 -8 -8 -8 -8 -9 -9 -9 -9 -9 -9 -9 -9 -9 -9 -9 -9 -9 -9 -9 -9 -9 -10 -10 -10 -10 -10 -10 -10
-8 -8 -7 -7 -7 -7 -7 -7 -7 -7 -7 -7 -7 -7 -8 -8 -8 -8 -8 -8 -8 -8 -8 -8 -8 -9 -9 -9 -9 -9 -9 -9 -9 -9 -9 -9 -9 -9 -9 -10 -10 -9 -9 -9 -10 -10 -10 -10 -10
-8 -8 -8 -7 -7 -7 -7 -7 -7 -7 -7 -7 -7 -7 -7 -7 -8 -8 -8 -8 -7 -7 -7 -8 -8 -8 -8 -8 -9 -9 -9 -9 -9 -9 -9 -10 -10 -9 -9 -10 -11 -11 -10 -10 -10 -10 -10 -10 -10
-8 -8 -8 -7 -7 -7 -7 -7 -7 -7 -7 -7 -7 -7 -7 -7 -7 -7 -7 -7 -8 -8 -8 -8 -8 -8 -9 -9 -9 -9 -9 -10 -10 -10 -10 -10 -10 -10 -10 -10 -11 -11 -11 -11 -11 -10 -10 -10 -11
-8 -8 -8 -7 -7 -7 -7 -7 -7 -7 -7 -7 -7 -7 -7 -7 -7 -8 -8 -8 -8 -8 -9 -9 -9 -9 -9 -9 -9 -9 -9 -10 -10 -10 -10 -11 -11 -11 -11 -11 -11 -11 -12 -12 -12 -12 -11 -11 -11
-8 -8 -8 -7 -7 -7 -7 -7 -7 -7 -7 -7 -7 -7 -7 -8 -8 -9 -9 -9 -8 -8 -8 -8 -9 -9 -9 -10 -10 -10 -10 -10 -10 -10 -11 -11 -11 -11 -12 -12 -12 -12 -12 -12 -13 -13 -13 -12 -12
-8 -8 -8 -7 -7 -7 -7 -7 -7 -7 -7 -8 -7 -7 -8 -8 -9 -8 -8 -8 -8 -8 -8 -8 -9 -9 -9 -9 -10 -10 -10 -11 -11 -12 -12 -12 -12 -12 -12 -12 -12 -13 -14 -13 -14 -14 -14 -14 -13
-8 -8 -8 -7 -7 -7 -7 -7 -7 -7 -8 -8 -8 -8 -9 -8 -8 -8 -8 -8 -8 -9 -9 -9 -9 -10 -10 -10 -10 -11 -11 -11 -12 -13 -14 -14 -14 -14 -13 -13 -12 -13 -13 -14 -14 -15 -14 -14 -14
-8 -8 -8 -7 -7 -7 -7 -7 -7 -8 -8 -8 -8 -8 -9 -8 -9 -9 -9 -9 -9 -9 -10 -10 -10 -11 -11 -11 -12 -12 -12 -13 -13 -14 -15 -15 -15 -15 -15 -15 -15 -14 -14 -14 -14 -14 -15 -15 -14
-8 -8 -8 -8 -8 -8 -7 -8 -8 -8 -9 -8 -8 -9 -9 -9 -9 -9 -9 -10 -10 -10 -10 -11 -11 -11 -12 -12 -13 -13 -14 -14 -14 -15 -16 -16 -16 -16 -16 -16 -16 -16 -16 -16 -16 -15 -15 -14 -15
-8 -8 -8 -8 -8 -8 -8 -8 -9 -9 -9 -9 -9 -9 -9 -9 -10 -10 -10 -10 -10 -11 -11 -12 -12 -12 -13 -13 -14 -14 -14 -14 -15 -16 -16 -17 -16 -16 -16 -16 -16 -16 -16 -16 -16 -16 -16 -16 -15
-9 -9 -9 -8 -8 -8 -9 -9 -9 -9 -9 -9 -9 -9 -10 -10 -10 -11 -11 -11 -11 -12 -12 -12 -13 -13 -14 -14 -15 -16 -17 -17 -17 -17 -17 -17 -17 -17 -17 -17 -17 -17 -17 -17 -17 -16 -16 -16 -16
-9 -9 -9 -9 -9 -9 -9 -9 -9 -10 -10 -9 -9 -10 -10 -11 -11 -11 -12 -12 -12 -13 -13 -14 -14 -15 -16 -16 -16 -17 -17 -17 -17 -17 -17 -17 -18 -18 -18 -19 -19 -19 -19 -19 -18 -18 -18 -17 -17
-9 -9 -9 -9 -9 -9 -9 -9 -10 -10 -10 -10 -10 -11 -12 -12 -12 -12 -13 -13 -13 -14 -14 -15 -16 -16 -17 -17 -18 -18 -18 -18 -18 -18 -19 -19 -20 -20 -20 -20 -20 -20 -20 -19 -19 -19 -18 -18 -18
-10 -10 -10 -10 -10 -10 -10 -10 -12 -11 -11 -11 -11 -12 -12 -13 -13 -13 -13 -14 -14 -15 -16 -16 -17 -17 -17 -18 -18 -18 -18 -19 -19 -20 -20 -20 -21 -22 -22 -22 -22 -22 -22 -21 -21 -20 -19 -19 -18
-10 -10 -10 -10 -11 -11 -11 -10 -12 -12 -12 -12 -13 -13 -14 -14 -13 -14 -14 -15 -15 -16 -17 -17 -17 -17 -18 -18 -18 -19 -19 -20 -21 -21 -21 -21 -23 -24 -25 -24 -24 -24 -24 -23 -23 -22 -21 -21 -20
Height
5920 5920 5922 5924 5929 5927 5927 5929 5929 5928 5929 5929 5929 5929 5930 5929 5930 5933 5930 5930 5930 5929 5929 5928 5928 5927 5926 5924 5923 5922 5921 5920 5919 5918 5916 5915 5914 5912 5910 5909 5907 5905 5903 5902 5900 5899 5897 5896 5895
5919 5921 5922 5923 5926 5926 5927 5927 5927 5927 5927 5927 5927 5927 5928 5929 5929 5929 5929 5929 5928 5928 5928 5927 5926 5926 5925 5924 5923 5922 5920 5919 5918 5917 5916 5914 5912 5911 5909 5908 5906 5904 5903 5902 5900 5899 5897 5896 5895
5918 5920 5922 5923 5924 5925 5926 5926 5927 5927 5926 5926 5926 5927 5927 5927 5926 5926 5926 5927 5927 5926 5926 5925 5924 5924 5923 5922 5921 5920 5919 5918 5916 5915 5913 5912 5910 5909 5908 5907 5905 5904 5902 5901 5900 5898 5897 5895 5894
5918 5920 5922 5923 5923 5924 5925 5925 5926 5925 5925 5924 5925 5926 5926 5924 5924 5924 5924 5924 5924 5924 5923 5923 5922 5922 5921 5920 5919 5917 5916 5914 5913 5913 5911 5910 5908 5907 5906 5905 5904 5902 5901 5900 5898 5897 5896 5895 5893
5917 5918 5920 5921 5922 5923 5923 5924 5923 5923 5923 5924 5924 5924 5924 5923 5922 5921 5921 5921 5921 5921 5920 5919 5919 5918 5917 5916 5914 5913 5912 5912 5911 5910 5909 5908 5906 5905 5904 5903 5902 5901 5899 5898 5897 5895 5894 5894 5892
5916 5917 5919 5919 5920 5921 5921 5922 5922 5920 5922 5923 5923 5923 5923 5920 5920 5919 5917 5917 5918 5917 5916 5915 5915 5914 5913 5912 5911 5910 5910 5909 5908 5907 5906 5905 5904 5902 5901 5900 5899 5898 5897 5896 5894 5893 5892 5891 5890
5914 5915 5916 5917 5918 5919 5919 5919 5918 5917 5920 5921 5921 5921 5919 5917 5916 5916 5915 5914 5914 5914 5913 5913 5912 5911 5910 5908 5907 5906 5906 5905 5904 5903 5902 5901 5900 5899 5898 5897 5896 5895 5895 5893 5892 5890 5889 5888 5887
5912 5913 5913 5914 5915 5916 5916 5915 5913 5914 5917 5918 5918 5918 5916 5914 5913 5913 5912 5910 5909 5908 5908 5908 5907 5907 5906 5905 5904 5903 5902 5900 5899 5898 5897 5896 5895 5894 5893 5892 5892 5891 5890 5890 5889 5887 5886 5885 5884
5910 5911 5911 5912 5913 5912 5912 5909 5911 5912 5914 5913 5914 5915 5914 5913 5911 5910 5909 5907 5906 5904 5903 5902 5902 5901 5900 5899 5899 5898 5897 5896 5894 5893 5892 5890 5889 5888 5886 5886 5886 5885 5885 5885 5884 5884 5883 5881 5881
5907 5908 5909 5910 5910 5910 5907 5906 5907 5908 5908 5908 5909 5911 5910 5910 5909 5907 5905 5904 5902 5900 5899 5898 5896 5895 5894 5893 5892 5891 5890 5890 5889 5888 5887 5885 5884 5883 5882 5881 5880 5880 5879 5879 5878 5878 5878 5877 5876
5905 5906 5906 5907 5908 5907 5902 5905 5905 5905 5905 5905 5904 5903 5904 5905 5904 5903 5902 5900 5898 5897 5896 5894 5892 5890 5889 5888 5887 5886 5885 5884 5882 5881 5881 5880 5879 5878 5876 5876 5875 5874 5873 5873 5873 5872 5872 5871 5871
5903 5903 5903 5904 5904 5902 5901 5901 5903 5903 5903 5902 5902 5902 5901 5900 5899 5898 5897 5896 5894 5893 5891 5890 5888 5886 5884 5883 5881 5880 5879 5877 5875 5874 5873 5872 5871 5871 5870 5869 5869 5868 5867 5866 5866 5865 5865 5865 5864
5900 5900 5900 5901 5901 5899 5898 5898 5899 5900 5900 5899 5899 5898 5897 5896 5894 5893 5892 5891 5890 5889 5887 5885 5883 5881 5880 5878 5876 5873 5872 5869 5867 5866 5865 5863 5862 5861 5860 5859 5859 5858 5858 5858 5857 5857 5857 5857 5856
5897 5897 5896 5897 5897 5895 5895 5895 5896 5897 5896 5896 5894 5894 5893 5891 5890 5888 5887 5885 5884 5883 5882 5881 5879 5877 5875 5873 5871 5868 5865 5863 5860 5858 5856 5855 5853 5851 5850 5850 5849 5848 5848 5848 5847 5847 5847 5847 5847
5894 5894 5894 5893 5894 5892 5893 5893 5892 5892 5892 5891 5890 5888 5887 5886 5885 5883 5882 5880 5878 5876 5875 5874 5873 5871 5869 5867 5865 5862 5860 5857 5854 5851 5848 5845 5843 5842 5841 5840 5839 5838 5837 5836 5836 5836 5836 5836 5836
5891 5891 5890 5890 5891 5891 5890 5890 5888 5887 5887 5886 5885 5883 5882 5880 5878 5877 5876 5874 5872 5870 5868 5866 5864 5862 5860 5858 5856 5854 5851 5850 5847 5843 5839 5836 5834 5831 5829 5828 5826 5826 5826 5825 5823 5823 5823 5823 5824
5888 5888 5887 5887 5887 5888 5887 5887 5885 5884 5882 5881 5879 5878 5876 5874 5873 5871 5870 5867 5865 5862 5860 5858 5856 5853 5851 5848 5844 5842 5839 5837 5834 5831 5828 5825 5822 5820 5818 5816 5814 5811 5811 5811 5812 5811 5810 5811 5812
5884 5883 5883 5883 5886 5884 5884 5883 5882 5880 5878 5876 5874 5872 5870 5868 5867 5865 5862 5860 5857 5855 5852 5849 5845 5842 5839 5836 5834 5831 5827 5824 5820 5818 5815 5812 5810 5807 5804 5803 5800 5798 5796 5796 5795 5796 5796 5797 5797
5880 5879 5879 5880 5881 5881 5880 5879 5877 5876 5873 5871 5869 5867 5864 5863 5861 5858 5854 5851 5848 5845 5842 5839 5835 5831 5827 5823 5819 5815 5812 5811 5808 5805 5801 5797 5794 5791 5789 5787 5785 5784 5781 5779 5780 5780 5780 5781 5782
5876 5876 5876 5876 5876 5876 5875 5875 5873 5871 5868 5866 5864 5861 5859 5856 5853 5849 5845 5842 5838 5835 5831 5827 5823 5819 5814 5810 5806 5801 5796 5792 5788 5784 5782 5780 5778 5775 5771 5768 5766 5766 5765 5763 5762 5763 5764 5764 5764
5873 5872 5872 5872 5871 5870 5869 5870 5868 5865 5863 5860 5858 5855 5852 5849 5844 5840 5836 5832 5829 5825 5820 5815 5810 5806 5800 5796 5791 5785 5781 5776 5771 5766 5761 5757 5756 5753 5751 5749 5747 5745 5745 5745 5744 5745 5746 5748 5749
5869 5868 5867 5866 5865 5865 5864 5863 5863 5860 5857 5854 5851 5847 5843 5839 5835 5831 5827 5822 5818 5813 5808 5802 5797 5791 5786 5780 5774 5768 5763 5758 5752 5748 5743 5738 5734 5730 5726 5725 5723 5724 5725 5725 5726 5727 5727 5728 5733
5865 5863 5862 5861 5860 5859 5857 5855 5858 5853 5850 5846 5842 5838 5834 5830 5826 5822 5817 5812 5807 5801 5795 5790 5783 5776 5769 5763 5755 5749 5743 5737 5732 5727 5724 5719 5716 5712 5707 5702 5701 5699 5698 5700 5703 5705 5707 5709 5711
5860 5858 5857 5856 5854 5853 5851 5849 5850 5844 5841 5836 5832 5829 5824 5820 5815 5810 5804 5798 5792 5786 5781 5774 5768 5761 5752 5744 5736 5729 5723 5716 5711 5704 5699 5695 5692 5688 5684 5680 5679 5679 5677 5675 5676 5678 5681 5684 5690
5855 5853 5851 5850 5849 5847 5845 5842 5841 5834 5829 5825 5821 5817 5813 5808 5802 5796 5790 5783 5777 5771 5763 5755 5748 5740 5732 5724 5716 5707 5700 5693 5687 5680 5674 5670 5666 5663 5660 5655 5652 5651 5652 5652 5651 5652 5654 5657 5663
5849 5848 5845 5841 5841 5841 5838 5835 5830 5825 5819 5814 5809 5805 5800 5794 5787 5780 5773 5766 5759 5752 5744 5736 5727 5719 5709 5700 5691 5682 5673 5666 5661 5656 5649 5644 5638 5634 5628 5624 5622 5621 5621 5622 5623 5624 5626 5632 5638
5843 5841 5839 5835 5833 5831 5830 5828 5821 5814 5808 5803 5797 5793 5788 5780 5773 5765 5756 5749 5742 5734 5724 5714 5704 5695 5686 5677 5667 5659 5649 5641 5633 5626 5618 5611 5605 5599 5595 5591 5588 5591 5592 5594 5593 5596 5598 5602 5610
5836 5834 5831 5828 5823 5820 5817 5815 5808 5801 5795 5789 5784 5780 5773 5765 5757 5749 5741 5733 5724 5715 5706 5695 5684 5676 5665 5655 5645 5636 5625 5613 5604 5594 5585 5577 5571 5565 5562 5561 5557 5558 5562 5565 5565 5569 5574 5577 5579
5829 5826 5823 5820 5817 5809 5803 5805 5796 5790 5784 5776 5772 5765 5758 5751 5742 5733 5724 5715 5706 5697 5686 5678 5667 5656 5647 5637 5625 5613 5601 5587 5575 5566 5556 5548 5540 5535 5531 5530 5528 5527 5530 5534 5536 5541 5546 5550 5554
5821 5818 5814 5810 5807 5802 5793 5794 5785 5779 5770 5764 5757 5748 5741 5733 5725 5715 5707 5698 5688 5678 5669 5660 5648 5638 5627 5614 5602 5590 5575 5562 5552 5543 5534 5523 5513 5509 5506 5504 5503 5504 5505 5509 5513 5518 5523 5527 5532
Wind_Speed
6 5 4 3 3 2 0 2 5 3 4 6 8 9 9 9 8 7 7 7 7 7 7 6 6 7 7 8 8 9 10 10 11 11 11 11 11 10 9 9 9 9 10 10 10 10 9 10 10
7 7 4 2 2 2 1 2 2 2 4 5 7 10 11 11 11 12 11 10 9 9 10 11 11 11 11 11 11 10 11 11 11 12 11 11 10 9 8 7 7 7 7 7 7 7 6 4 5
6 5 5 3 2 2 3 4 3 5 6 7 7 9 11 12 14 13 13 13 12 13 14 14 14 14 15 14 13 13 12 13 13 12 11 10 10 9 9 8 7 6 6 5 5 5 4 2 0
5 4 3 2 2 3 4 4 5 7 9 9 9 10 10 11 13 14 13 12 14 15 16 17 18 17 17 18 18 16 15 14 13 14 13 13 12 12 10 9 9 8 7 6 5 5 4 4 3
7 6 4 3 3 3 3 4 5 7 7 7 10 11 10 11 12 15 16 15 15 16 17 17 18 20 20 21 21 21 20 18 16 16 16 16 15 14 14 12 11 11 10 9 9 8 7 6 6
10 7 5 5 5 5 5 6 7 9 8 7 8 9 11 14 14 15 16 17 17 16 17 18 19 20 21 23 24 25 25 23 21 19 18 18 18 18 17 16 15 14 12 12 12 11 11 10 10
10 8 7 8 9 8 8 9 10 13 11 10 11 12 14 15 17 17 16 17 17 17 17 17 20 21 23 24 25 27 28 27 26 25 23 22 21 21 20 19 19 18 16 15 14 14 13 13 13
10 10 10 10 10 9 11 13 15 16 13 12 12 11 14 15 15 16 16 15 16 16 17 16 16 18 21 24 26 27 29 30 30 30 30 28 26 25 24 24 23 23 22 20 18 17 17 16 15
10 11 11 11 11 12 13 15 15 15 14 16 14 12 12 11 13 14 15 15 17 17 17 18 18 18 20 21 21 23 28 30 32 32 33 33 33 32 31 29 27 27 27 25 24 22 21 20 19
12 13 12 12 13 14 18 18 19 19 19 20 17 11 11 11 12 14 16 17 19 19 19 20 21 21 22 23 24 25 24 26 29 32 34 35 35 36 36 35 33 32 31 31 29 28 26 26 25
13 13 13 14 14 15 20 18 19 19 19 18 20 20 18 16 17 18 19 19 19 20 20 21 23 24 24 25 25 26 28 28 29 30 31 34 36 37 37 38 38 38 37 36 34 33 32 30 30
12 14 14 14 14 16 19 21 19 17 18 17 18 18 17 16 15 15 16 17 19 20 22 22 24 27 28 28 29 29 30 30 31 32 32 33 33 35 38 39 40 41 41 41 39 38 37 36 35
12 15 15 15 15 17 18 19 17 16 16 15 15 14 14 14 16 17 18 19 19 20 21 23 25 27 28 29 31 33 34 35 35 35 36 36 37 37 37 38 41 42 43 44 44 43 42 41 40
14 16 17 15 14 17 17 16 15 13 12 13 14 15 15 15 15 16 17 18 19 20 19 19 21 24 27 28 30 32 35 37 39 41 42 43 43 43 43 42 42 42 43 44 45 46 46 45 44
15 17 16 16 14 16 15 13 13 14 14 15 15 16 17 18 18 20 22 23 24 26 28 29 28 29 31 32 34 35 37 40 42 44 46 47 48 48 48 49 49 48 46 46 47 47 48 48 47
17 17 17 16 13 12 13 13 15 16 17 19 20 21 22 23 24 26 28 29 30 32 33 35 37 38 40 42 43 44 45 45 46 48 50 52 53 54 52 49 49 54 56 55 53 52 52 50 49
17 16 17 14 12 12 13 14 16 18 20 21 23 25 25 26 28 29 29 30 32 34 36 37 38 40 42 45 47 48 49 49 49 49 51 55 57 59 60 59 56 57 55 57 60 59 59 57 55
16 16 15 16 11 13 14 15 16 18 20 22 24 25 25 26 27 28 28 29 30 32 34 36 39 41 43 44 45 48 50 51 52 52 53 55 56 57 59 61 61 60 60 61 60 62 63 62 61
15 16 16 15 13 14 16 16 17 20 22 23 25 26 26 26 27 28 29 31 34 37 38 41 43 46 48 50 53 56 56 54 55 57 60 61 62 62 60 60 62 62 65 62 62 61 63 64 64
15 14 16 16 16 16 18 18 19 21 23 25 26 27 28 29 30 31 33 36 40 44 47 49 50 51 52 53 55 57 59 61 64 65 63 62 66 68 69 66 63 65 66 65 59 59 62 61 62
15 16 17 18 17 18 19 17 20 22 25 28 29 30 31 32 33 37 40 43 47 49 51 53 55 57 58 60 62 63 64 66 66 64 67 68 68 70 74 75 74 69 66 66 64 62 62 60 62
16 18 18 19 19 19 20 23 19 23 27 28 30 31 33 36 40 43 45 48 51 53 56 57 59 61 63 65 67 68 69 69 69 67 65 67 69 73 74 76 80 79 77 74 71 66 65 65 60
19 20 19 19 21 23 25 27 21 26 28 29 33 35 38 42 44 47 50 52 54 56 59 60 62 65 67 70 70 70 71 72 73 73 70 69 69 70 71 74 76 78 81 78 78 77 73 71 69
21 21 21 23 24 25 26 30 27 30 31 35 37 40 44 46 48 51 53 55 58 60 62 65 67 69 71 72 72 73 74 76 78 78 75 72 72 72 71 72 73 74 78 80 79 78 79 78 76
22 23 25 26 26 28 30 33 32 35 37 40 43 46 47 50 52 54 57 59 62 64 67 69 71 73 75 76 77 78 82 84 81 77 75 75 75 75 76 80 82 82 82 81 84 86 86 85 81
23 24 27 31 31 33 34 36 38 37 42 45 48 50 51 53 56 57 59 62 66 68 70 73 75 77 79 79 82 83 79 75 74 75 77 79 81 84 88 89 88 83 82 84 85 88 91 90 89
24 27 30 34 37 39 38 37 39 41 46 51 53 54 54 55 58 60 63 66 69 71 73 77 79 80 82 84 83 79 79 80 82 87 88 87 86 84 82 81 80 76 73 75 80 83 87 90 91
28 30 33 37 42 44 44 42 43 47 51 54 57 56 57 59 61 64 68 70 71 73 76 78 79 82 83 80 79 81 84 90 90 90 87 85 84 83 82 80 80 79 75 73 75 77 81 84 87
30 33 37 40 42 47 51 47 46 49 53 58 59 58 60 60 64 69 71 71 74 76 76 78 81 82 79 78 82 85 90 89 85 79 78 80 80 75 72 70 70 71 69 65 66 69 72 77 82
35 38 40 44 45 48 51 51 50 54 58 61 61 63 64 67 71 73 73 75 76 76 77 81 81 79 80 82 86 88 85 73 69 69 67 71 74 71 67 63 61 63 64 59 56 59 62 66 69
Wind_Direction
222 214 206 170 149 96 107 50 57 15 289 261 254 254 257 254 260 264 276 285 285 287 291 293 301 311 317 318 322 325 328 332 337 344 350 356 359 6 13 22 31 33 35 37 42 56 72 80 71
223 225 206 209 209 186 199 225 221 49 1 324 287 275 271 271 271 272 276 279 280 277 283 287 291 294 295 298 304 308 313 318 321 325 332 335 337 338 347 357 3 11 19 23 32 41 65 87 75
245 239 225 198 216 206 231 259 281 297 319 322 310 302 299 288 280 278 278 281 283 282 281 280 282 284 289 289 289 294 298 303 306 307 310 313 315 316 319 325 332 335 340 348 357 14 20 24 357
249 252 247 211 148 192 222 250 278 286 291 294 306 299 291 290 288 287 288 291 290 286 286 282 278 278 280 284 288 286 284 286 292 295 296 297 298 300 302 303 305 308 308 311 314 318 323 326 326
236 234 225 203 193 221 213 235 249 258 267 288 297 306 313 306 298 293 287 283 275 277 281 282 278 277 276 277 276 278 282 282 282 283 286 289 291 292 293 294 294 293 295 295 293 293 294 293 291
237 226 209 205 214 229 233 242 255 260 269 271 285 305 308 306 307 304 301 296 291 283 279 281 281 279 277 274 274 275 277 278 279 280 283 284 286 287 286 286 285 286 284 282 283 284 285 284 285
230 221 207 217 218 226 241 248 257 263 268 276 287 305 299 296 297 299 305 304 304 300 293 289 289 286 282 279 275 272 274 274 275 276 278 279 279 281 281 280 279 278 276 274 274 275 274 276 279
226 222 224 235 241 238 246 253 261 270 285 291 294 300 300 302 306 305 302 301 297 296 295 291 286 290 292 291 287 281 276 273 272 273 275 275 275 273 274 275 275 274 272 269 266 268 270 269 270
228 232 236 248 266 275 277 276 279 285 294 290 300 305 300 299 299 300 301 302 301 299 296 293 288 285 283 282 283 289 288 285 281 278 275 274 272 271 269 267 269 270 270 268 266 263 264 266 266
229 241 248 255 262 274 278 281 290 300 303 304 307 306 300 297 295 295 296 297 298 299 300 297 294 290 286 283 281 281 281 284 284 282 279 276 276 275 273 271 269 267 267 267 266 264 262 261 264
236 247 257 264 271 272 275 283 283 288 292 300 306 310 312 306 297 293 291 291 293 292 292 293 293 291 289 286 285 285 284 282 281 282 283 283 281 278 275 272 273 272 271 267 265 265 264 262 259
241 254 261 268 273 271 274 277 283 291 297 299 302 306 310 310 305 300 294 290 289 289 288 286 285 286 287 287 287 284 282 280 278 278 277 276 279 281 279 277 274 273 273 271 268 266 265 263 263
250 258 266 265 269 271 273 277 285 292 300 309 313 316 314 308 301 297 297 295 293 291 290 289 289 288 288 288 287 287 286 284 281 277 274 272 271 270 271 273 273 273 272 272 271 268 265 264 264
252 257 265 268 269 275 278 287 297 303 307 308 308 310 306 302 300 301 304 305 304 301 295 288 287 285 286 285 285 287 288 288 287 284 282 278 273 270 268 267 268 269 270 270 270 269 267 264 263
251 255 259 270 272 278 286 293 302 303 304 307 308 305 305 305 302 301 301 299 296 294 292 290 287 284 283 282 280 280 281 283 284 285 285 284 282 278 274 271 268 266 265 266 266 266 266 265 264
250 254 260 266 270 274 282 294 300 305 306 306 306 306 306 304 301 300 298 296 293 292 292 292 292 291 290 289 287 285 283 279 280 279 279 278 279 279 275 273 271 268 267 264 262 262 261 259 260
252 255 262 265 269 275 280 289 293 298 302 303 304 303 302 300 299 298 297 296 296 296 294 293 292 290 290 290 289 288 286 285 283 277 272 271 272 273 272 272 270 268 267 265 264 262 261 261 260
251 255 255 263 267 278 283 288 294 298 302 305 304 304 304 303 302 301 301 300 298 297 297 297 299 298 297 295 291 288 287 286 282 278 274 270 269 268 267 267 267 268 267 265 264 262 261 261 260
249 253 259 267 274 279 285 294 300 301 299 299 301 299 299 300 299 301 303 305 307 307 304 303 303 302 301 301 301 299 295 288 281 275 274 272 268 266 264 263 262 261 264 263 263 263 262 262 262
250 255 263 270 275 279 285 293 296 292 293 296 296 295 299 298 299 304 309 310 309 309 308 306 304 303 302 301 299 296 295 293 292 289 285 275 268 265 263 259 257 256 256 257 259 259 261 262 262
253 258 264 272 278 287 289 293 295 294 295 295 293 294 294 300 305 310 311 309 306 305 304 302 302 301 300 299 298 296 294 292 290 286 283 281 275 270 265 263 259 256 254 256 257 256 255 256 259
261 266 272 280 285 289 290 292 294 297 293 291 294 296 306 311 311 309 307 304 303 303 302 301 300 299 298 297 296 294 293 292 290 285 279 275 274 272 270 265 264 264 259 255 255 255 254 253 253
271 276 281 286 288 289 292 293 299 294 296 298 302 307 309 308 306 304 303 302 302 300 299 299 300 299 298 297 295 293 292 291 290 287 283 279 273 269 269 270 269 266 267 268 260 254 253 253 252
277 282 283 285 287 291 294 295 308 303 306 306 307 306 306 306 305 304 303 303 303 302 301 300 298 298 297 296 294 294 293 293 292 290 286 279 272 270 271 271 270 268 267 268 268 265 262 257 253
281 285 289 288 291 293 295 296 306 310 308 307 307 308 308 307 306 305 306 306 304 303 302 302 301 299 298 297 297 297 296 295 293 289 285 281 278 275 272 275 276 272 268 264 262 262 263 264 261
284 289 294 296 295 294 299 304 307 308 307 308 309 308 309 308 308 308 308 307 307 306 304 303 302 302 302 303 302 300 298 294 292 290 287 284 282 280 279 277 274 271 266 263 260 257 256 257 259
287 293 296 296 294 298 300 304 307 310 308 309 309 308 310 308 307 309 309 308 307 307 307 307 306 307 306 305 304 302 299 297 296 296 294 290 286 282 278 276 273 269 265 261 258 256 257 256 253
292 295 296 297 299 301 304 307 313 311 311 309 307 309 308 308 308 309 309 310 310 309 309 309 308 307 308 306 304 303 303 303 300 297 294 291 288 284 280 276 274 271 268 262 259 257 255 255 257
293 295 296 298 301 303 305 309 314 309 308 307 308 308 307 308 309 310 311 311 311 310 309 308 309 308 305 304 305 307 306 303 300 300 299 297 290 284 280 275 271 269 267 263 257 253 251 252 252
294 296 298 299 301 302 303 310 308 310 307 308 309 307 308 309 310 311 311 312 311 310 309 310 308 306 306 306 309 309 306 303 304 303 304 303 293 283 277 272 268 267 265 262 256 251 249 250 252